Home   Weather   Nordhorn   Past weeks

Flag for Germany Past Weather in Nordhorn, Lower Saxony, Germany — Yesterday and Last 2 Weeks

Now
31 °F

Scattered clouds.


Feels Like: 31 °F
Forecast: 36 / 44 °F
Wind: 1 mph from Southeast

Location: Twenthe

Current Time: Nov 25, 2017 at 11:28:26 am

Latest Report: Nov 25, 2017 at 10:00 am


Visibility: 0 mi

Pressure: 29.85 "Hg

Humidity: 100%

Dew Point: 31 °F

Location of NordhornLocation

Past Weather in Nordhorn — Graph

°F

Nordhorn Temperature Yesterday

Maximum temperature yesterday: 47 °F (at 12:00 am)
Minimum temperature yesterday: 37 °F (at 8:00 pm)
Average temperature yesterday: 44 °F

High & Low Weather Summary for the Past Weeks

 TemperatureHumidityPressure
High58 °F (Nov 23, 2:00 pm)100% (Nov 16, 7:00 pm)30.34 "Hg (Nov 16, 7:00 pm)
Low31 °F (Nov 25, 8:00 am)55% (Nov 23, 12:00 am)29.44 "Hg (Nov 23, 7:00 am)
Average44 °F89%29.94 "Hg
* Reported Nov 10 10:00 am — Nov 25 10:00 am, Nordhorn. Weather by CustomWeather, © 2017

Note: Actual official high and low records may vary slightly from our data, if they occured in-between our weather recording intervals... More about our weather records

Advertising

Nordhorn Weather History for the Previous 24 Hours

Scroll right to see more
 ConditionsComfort  
Time TempWeatherWind HumidityBarometerVisibility
10:00 am
Sat, Nov 25
31 °FScattered clouds.1 mph100%29.85 "Hg1 mi
9:00 am31 °FIce fog.1 mph99%29.83 "Hg0 mi
8:00 am31 °FIce fog.No wind99%29.81 "Hg0 mi
7:00 am32 °FLow clouds.1 mph99%29.81 "Hg0 mi
6:00 am35 °FPassing clouds.No wind99%29.81 "Hg0 mi
5:00 am38 °FFog.No wind98%29.82 "Hg2 mi
4:00 am41 °FOvercast.3 mph91%29.82 "Hg6 mi
3:00 am41 °FOvercast.2 mph91%29.85 "Hg6 mi
2:00 am41 °FDrizzle. Overcast.3 mph99%29.86 "Hg1 mi
1:00 am39 °FOvercast.1 mph100%29.87 "Hg0 mi
12:00 am40 °FOvercast.1 mph99%29.88 "Hg0 mi
11:00 pm
Fri, Nov 24
41 °FFog.1 mph99%29.88 "Hg2 mi
10:00 pm41 °FFog.2 mph98%29.89 "Hg2 mi
9:00 pm40 °FOvercast.1 mph99%29.90 "Hg2 mi
8:00 pm37 °FOvercast.1 mph100%29.89 "Hg0 mi
7:00 pm40 °FOvercast.1 mph99%29.88 "Hg3 mi
6:00 pm39 °FOvercast.2 mph97%29.87 "Hg6 mi
5:00 pm41 °FFog.1 mph99%29.88 "Hg4 mi
4:00 pm44 °FOvercast.2 mph91%29.86 "Hg22 mi
3:00 pm46 °FOvercast.2 mph90%29.84 "Hg22 mi
2:00 pm46 °FOvercast.2 mph86%29.83 "Hg28 mi
1:00 pm46 °FOvercast.2 mph92%29.82 "Hg17 mi
12:00 pm44 °FRain. Low clouds.5 mph95%29.81 "Hg4 mi
11:00 am45 °FRain showers. Low clouds.3 mph97%29.80 "Hg2 mi
Weather by CustomWeather, © 2017

See weather overview